Lawton, OK

6:06 PM CST on February 07, 2016 (GMT -0600)
Lawton-Fort Sill Regional

Weather History for KLAW - April, 2014

Change the Weather History Date:

Tuesday, April 29, 2014

  Actual Average Record
Temperature  
Mean Temperature 60 °F -  
Max Temperature 64 °F 75 °F 90 °F (2013)
Min Temperature 53 °F 53 °F 40 °F (1956)
Degree Days  
Heating Degree Days 6    
Growing Degree Days 10 (Base 50)    
Moisture  
Dew Point 33 °F    
Average Humidity 38    
Maximum Humidity 69    
Minimum Humidity 31    
Precipitation  
Precipitation 0.00 in - - ()
Sea Level Pressure  
Sea Level Pressure 29.86 in    
Wind  
Wind Speed 11 mph (NW)    
Max Wind Speed 26 mph    
Max Gust Speed 43 mph    
Visibility 10 miles    
Events      
Averages and records for this station are not official NWS values.
T = Trace of Precipitation, MM = Missing Value Source: NWS Daily Summary

Daily Weather History Graph

Daily Weather History Graph

Search for Another Location

Airport or City:

Trip Planner

Search our weather history database for the weather conditions in past years. The results will help you decide how hot, cold, wet, or windy it might be!

Date:

Astronomy

Apr. 29, 2014 Rise Set
Actual Time 6:45 AM CDT 8:16 PM CDT
Civil Twilight 6:18 AM CDT 8:43 PM CDT
Nautical Twilight 5:46 AM CDT 9:15 PM CDT
Astronomical Twilight 5:13 AM CDT 9:49 PM CDT
Moon 7:04 AM CDT (4/29) 8:57 PM CDT (4/29)
Length of Visible Light 14h 24m
Length of Day
13h 31m
New Moon, 0% of the Moon is Illuminated
Apr 29
New Moon
May 6
First Quarter
May 14
Full
May 21
Last Quarter
May 28
New

Hourly Weather History & Observations

Time (CDT) Temp. Dew Point Humidity Pressure Visibility Wind Dir Wind Speed Gust Speed Precip Events Conditions
12:53 AM 55.9 °F 46.0 °F 69% 29.71 in 10.0 mi WSW 4.6 mph - N/A   Clear
1:53 AM 57.9 °F 43.0 °F 58% 29.75 in 10.0 mi WNW 3.5 mph - N/A   Partly Cloudy
2:53 AM 61.0 °F 33.1 °F 35% 29.77 in 10.0 mi North 13.8 mph 24.2 mph N/A   Mostly Cloudy
3:53 AM 60.1 °F 34.0 °F 38% 29.78 in 10.0 mi North 16.1 mph 19.6 mph N/A   Overcast
4:53 AM 59.0 °F 32.0 °F 36% 29.78 in 10.0 mi NNW 8.1 mph - N/A   Mostly Cloudy
5:53 AM 57.0 °F 30.9 °F 37% 29.79 in 10.0 mi NNW 6.9 mph - N/A   Clear
6:53 AM 55.9 °F 30.0 °F 37% 29.81 in 10.0 mi NW 3.5 mph - N/A   Clear
8:53 AM 61.0 °F 32.0 °F 34% 29.83 in 10.0 mi WNW 16.1 mph 24.2 mph N/A   Clear
9:53 AM 63.0 °F 32.0 °F 31% 29.84 in 10.0 mi Variable 6.9 mph 29.9 mph N/A   Clear
10:50 AM 64.4 °F - N/A% 29.85 in - NW 21.9 mph 35.7 mph N/A   Clear
10:53 AM 64.0 °F - N/A% 29.84 in - NW 20.7 mph 35.7 mph N/A   Clear
11:53 AM 63.0 °F 35.1 °F 35% 29.87 in 10.0 mi NW 24.2 mph 39.1 mph N/A   Mostly Cloudy
12:53 PM 62.1 °F 32.0 °F 32% 29.87 in 10.0 mi NW 26.5 mph 42.6 mph N/A   Partly Cloudy
1:53 PM 61.0 °F 33.1 °F 35% 29.87 in 10.0 mi NNW 21.9 mph 34.5 mph N/A   Mostly Cloudy
2:53 PM 61.0 °F 34.0 °F 36% 29.88 in 10.0 mi NW 21.9 mph 32.2 mph N/A   Overcast
4:53 PM 63.0 °F 34.0 °F 34% 29.88 in 10.0 mi NNW 15.0 mph 32.2 mph N/A   Overcast
5:53 PM 63.0 °F 32.0 °F 31% 29.89 in 10.0 mi NNW 13.8 mph 24.2 mph N/A   Overcast
6:53 PM 63.0 °F 32.0 °F 31% 29.90 in 10.0 mi NNW 18.4 mph 27.6 mph N/A   Overcast
7:53 PM 60.1 °F 30.9 °F 33% 29.91 in 10.0 mi NNW 9.2 mph - N/A   Clear
8:53 PM 57.9 °F 30.0 °F 35% 29.94 in 10.0 mi NNW 11.5 mph 18.4 mph N/A   Partly Cloudy
9:53 PM 55.9 °F 30.0 °F 37% 29.97 in 10.0 mi NW 4.6 mph - N/A   Overcast
10:53 PM 55.0 °F 28.9 °F 37% 29.99 in 10.0 mi NNW 9.2 mph 18.4 mph N/A   Clear
11:53 PM 53.1 °F 30.0 °F 41% 30.00 in 10.0 mi NW 9.2 mph 18.4 mph N/A   Clear